This is the latest recevied weather packets stored in our database for station/object NC4M. If no packets are shown the sender has not sent any weather packets the latest 10 day(s).
| Time | Temp. | Humidity | Pressure | Rain* | Wind** | Luminosity | Snow |
|---|---|---|---|---|---|---|---|
| 1787665058 | 22.22° C | 83% | 1018.1 hPa | 0 mm | - | 89 W/m² | - |
| 1787664755 | 22.22° C | 82% | 1018 hPa | 0 mm | - | 49 W/m² | - |
| 1787664453 | 21.67° C | 83% | 1018.1 hPa | 0 mm | - | 48 W/m² | - |
| 1787664149 | 21.11° C | 84% | 1018.3 hPa | 0 mm | - | 47 W/m² | - |
| 1787663848 | 21.11° C | 86% | 1018 hPa | 0 mm | - | 55 W/m² | - |
| 1787663550 | 21.11° C | 86% | 1018.1 hPa | 0 mm | - | 42 W/m² | - |
| 1787663239 | 20.56° C | 87% | 1018.1 hPa | 0 mm | - | 41 W/m² | - |
| 1787662936 | 20.56° C | 87% | 1018.2 hPa | 0 mm | - | 40 W/m² | - |
| 1787662635 | 20.56° C | 89% | 1018.2 hPa | 0 mm | - | 38 W/m² | - |
| 1787662330 | 20° C | 89% | 1018.2 hPa | 0 mm | - | 36 W/m² | - |
| 1787662026 | 20° C | 89% | 1018.1 hPa | 0 mm | - | 35 W/m² | - |
| 1787661722 | 20° C | 90% | 1018.2 hPa | 0 mm | - | 33 W/m² | - |
| 1787661421 | 20° C | 91% | 1018.2 hPa | 0 mm | - | 31 W/m² | - |
| 1787661121 | 20° C | 91% | 1018.1 hPa | 0 mm | - | 29 W/m² | - |
| 1787660819 | 19.44° C | 91% | 1018.1 hPa | 0 mm | - | 27 W/m² | - |
| 1787660515 | 19.44° C | 92% | 1018.2 hPa | 0 mm | - | 25 W/m² | - |
| 1787660214 | 19.44° C | 92% | 1018.2 hPa | 0 mm | - | 23 W/m² | - |
| 1787659910 | 19.44° C | 93% | 1018.1 hPa | 0 mm | - | 20 W/m² | - |
| 1787659607 | 19.44° C | 93% | 1018.4 hPa | 0 mm | - | 17 W/m² | - |
| 1787659303 | 19.44° C | 93% | 1018.2 hPa | 0 mm | - | 15 W/m² | - |
| 1787659003 | 18.89° C | 93% | 1018.4 hPa | 0 mm | - | 11 W/m² | - |
| 1787658702 | 18.89° C | 93% | 1018.3 hPa | 0 mm | - | 8 W/m² | - |
| 1787658397 | 18.89° C | 94% | 1018.1 hPa | 0 mm | - | 7 W/m² | - |
| 1787658094 | 18.89° C | 94% | 1018.1 hPa | 0 mm | - | 5 W/m² | - |
| 1787657794 | 18.89° C | 94% | 1018 hPa | 0 mm | - | 3 W/m² | - |
* Rain latest hour (hover to see other rain measurements)
** Current wind speed in m/s (hover to see current wind gust speed)